User: anonymous   Login
Location: Bothwell
(42.3833°S, 147.0000°E)
Time: 00:14:07
(UTC+10:00)
Language:

NOAA 18 - Orbit

View from above orbital plane
View from above orbital plane
View from above satellite
View from above satellite

Ground track
Ground track

The orbit data is extracted from the following two-line orbital elements,

1 28654U 05018A   22274.15696709  .00000196  00000-0  12939-3 0  9992
2 28654  98.9402 344.4665 0014691  36.6766 323.5408 14.12782455894999
Epoch (UTC): 01 October 2022 03:46:01
Eccentricity: 0.0014691
inclination: 98.9402°
perigee height: 839 km
apogee height: 860 km
right ascension of ascending node: 344.4665°
argument of perigee: 36.6766°
revolutions per day: 14.12782455
mean anomaly at epoch: 323.5408°
orbit number at epoch: 89499

The dashed part of the orbit path shows where the satellite is in the earth's shadow,  

DLR